Meteo Giornale » Osservazioni meteo Stati Uniti (USA) » Murray Kyle-Oak
ore: 11:55 - Osservazioni Meteo Murray Kyle-Oak
Lat. 36° 40' N Lon. 88° 22' W Alt. 176 metri s.l.m.
33 °C
Sereno
Temp. 24 Ore
23 °C
35 °C
Sud
13 Km/h
Dew point 23 °C
Umidità 55 %
Visibilità 10 Km
Il sole sorge alle ore 06:24
Il sole tramonta alle ore 19:23
| Data e Ora | Cielo e Fenomeni | T °C | DP °C | Um. % | Pres. hPa | Vis. km | Vento km/h | |
|---|---|---|---|---|---|---|---|---|
| Oggi h: 11:55 | Sereno | 33 | 23 | 55 | 1020 | 10 | S 13 | |
| Oggi h: 11:30 | Sereno | 32 | 22 | 55 | 1021 | 10 | SO 16.7 | |
| Oggi h: 11:15 | Poco Nuvoloso | 32 | 23 | 59 | 1020 | 10 | SO 14.8 | |
| Oggi h: 10:55 | Sereno | 32 | 23 | 59 | 1020 | 10 | N 7.4 | |
| Oggi h: 10:35 | Sereno | 31 | 23 | 62 | 1020 | 10 | SO 13 | |
| Oggi h: 10:15 | Sereno | 31 | 23 | 62 | 1020 | 10 | SO 18.5 | |
| Oggi h: 09:50 | Sereno | 30 | 23 | 66 | 1020 | 10 | SO 11.1 | |
| Oggi h: 09:35 | Sereno | 30 | 23 | 66 | 1020 | 10 | S/SO 11.1 | |
| Oggi h: 09:15 | Sereno | 30 | 23 | 66 | 1020 | 10 | N 9.3 | |
| Oggi h: 08:55 | Sereno | 28 | 23 | 74 | 1020 | 10 | N 7.4 | |
| Oggi h: 08:35 | Sereno | 28 | 23 | 74 | 1020 | 10 | N 7.4 | |
| Oggi h: 08:10 | Sereno | 26 | 23 | 83 | 1020 | 10 | N 9.3 | |
| Oggi h: 07:55 | Sereno | 25 | 23 | 88 | 1020 | 10 | S 7.4 | |
| Oggi h: 07:35 | Sereno | 25 | 23 | 88 | 1019 | 10 | S 11.1 | |
| Oggi h: 07:15 | Sereno | 24 | 22 | 88 | 1019 | 10 | S/SE 11.1 | |
| Oggi h: 06:55 | Sereno | 24 | 22 | 88 | 1019 | 10 | S/SE 11.1 | |
| Oggi h: 06:30 | Sereno | 24 | 22 | 88 | 1019 | 10 | S/SE 11.1 | |
| Oggi h: 06:15 | Sereno | 23 | 22 | 94 | 1019 | 10 | S/SE 11.1 | |
| Oggi h: 05:55 | Sereno | 24 | 22 | 88 | 1019 | 10 | S/SE 7.4 | |
| Oggi h: 05:35 | Sereno | 24 | 22 | 88 | 1018 | 10 | S/SE 7.4 | |
| Oggi h: 05:15 | Sereno | 24 | 22 | 88 | 1018 | 10 | N 0 | |
| Oggi h: 04:50 | Sereno | 24 | 22 | 88 | 1018 | 10 | N 5.5 | |
| Oggi h: 04:35 | Sereno | 24 | 22 | 88 | 1018 | 10 | N 7.4 | |
| Oggi h: 04:15 | Sereno | 25 | 22 | 83 | 1018 | 10 | S/SE 9.3 | |
| Oggi h: 03:55 | Sereno | 25 | 22 | 83 | 1018 | 10 | S/SE 9.3 | |
| Oggi h: 03:35 | Sereno | 25 | 22 | 83 | 1018 | 10 | S/SE 9.3 | |
| Oggi h: 03:10 | Sereno | 25 | 22 | 83 | 1018 | 10 | S/SE 9.3 | |
| Oggi h: 02:55 | Sereno | 25 | 22 | 83 | 1018 | 10 | SE 9.3 | |
| Oggi h: 02:35 | Sereno | 25 | 22 | 83 | 1018 | 10 | S/SE 9.3 | |
| Oggi h: 02:15 | Sereno | 26 | 23 | 83 | 1018 | 10 | S/SE 9.3 | |
| Oggi h: 01:55 | Sereno | 26 | 23 | 83 | 1018 | 10 | S/SE 9.3 | |
| Oggi h: 01:30 | Sereno | 26 | 23 | 83 | 1018 | 10 | N 5.5 | |
| Oggi h: 01:15 | Sereno | 26 | 23 | 83 | 1018 | 10 | N 7.4 | |
| Oggi h: 00:55 | Sereno | 26 | 23 | 83 | 1018 | 10 | S/SE 7.4 | |
| Oggi h: 00:35 | Sereno | 26 | 23 | 83 | 1018 | 10 | N 7.4 | |
| Oggi h: 00:15 | Sereno | 26 | 23 | 83 | 1018 | 10 | S/SE 7.4 | |
| Ieri h: 23:50 | Sereno | 26 | 24 | 88 | 1018 | 10 | S/SE 7.4 | |
| Ieri h: 23:35 | Sereno | 26 | 24 | 88 | 1018 | 10 | S/SE 7.4 | |
| Ieri h: 23:15 | Sereno | 27 | 24 | 83 | 1018 | 10 | S/SE 7.4 | |
| Ieri h: 22:55 | Sereno | 27 | 24 | 83 | 1018 | 10 | N 7.4 | |
| Ieri h: 22:35 | Sereno | 27 | 24 | 83 | 1018 | 10 | SE 9.3 | |
| Ieri h: 22:10 | Sereno | 27 | 24 | 83 | 1018 | 10 | N 5.5 | |
| Ieri h: 21:55 | Sereno | 27 | 24 | 83 | 1018 | 10 | N 0 | |
| Ieri h: 21:35 | Sereno | 28 | 24 | 78 | 1018 | 10 | N 0 | |
| Ieri h: 21:15 | Sereno | 27 | 24 | 83 | 1018 | 10 | N 0 | |
| Ieri h: 20:55 | Sereno | 27 | 24 | 83 | 1017 | 10 | N 0 | |
| Ieri h: 20:30 | Sereno | 27 | 24 | 83 | 1017 | 10 | N 0 | |
| Ieri h: 20:15 | Sereno | 27 | 24 | 83 | 1017 | 10 | N 0 | |
| Ieri h: 19:55 | Sereno | 28 | 24 | 78 | 1017 | 10 | N 0 | |
| Ieri h: 19:35 | Sereno | 29 | 23 | 70 | 1017 | 10 | N 0 | |
| Ieri h: 19:15 | Sereno | 29 | 23 | 70 | 1017 | 10 | N 0 | |
| Ieri h: 18:50 | Sereno | 31 | 22 | 58 | 1017 | 10 | N 0 | |
| Ieri h: 18:35 | Sereno | 32 | 22 | 55 | 1017 | 10 | S/SE 9.3 | |
| Ieri h: 18:15 | Sereno | 32 | 22 | 55 | 1017 | 10 | S/SE 7.4 | |
| Ieri h: 17:55 | Sereno | 33 | 21 | 49 | 1017 | 10 | S/SE 7.4 | |
| Ieri h: 17:35 | Poco Nuvoloso | 33 | 21 | 49 | 1017 | 10 | S 11.1 | |
| Ieri h: 17:10 | Sereno | 33 | 21 | 49 | 1017 | 10 | S/SE 11.1 | |
| Ieri h: 16:55 | Sereno | 34 | 21 | 46 | 1017 | 10 | S 13 | |
| Ieri h: 16:35 | Sereno | 33 | 21 | 49 | 1017 | 10 | N 7.4 | |
| Ieri h: 16:15 | Sereno | 34 | 21 | 46 | 1017 | 10 | S/SO 9.3 | |
| Ieri h: 15:55 | Sereno | 35 | 21 | 44 | 1017 | 10 | S/SO 14.8 | |
| Ieri h: 15:30 | Poco Nuvoloso | 34 | 21 | 46 | 1018 | 10 | S/SE 11.1 | |
| Ieri h: 15:15 | Nuvoloso | 34 | 22 | 49 | 1018 | 10 | N 9.3 | |
| Ieri h: 14:55 | Nuvoloso | 34 | 21 | 46 | 1018 | 10 | S 13 | |
| Ieri h: 14:35 | Nuvoloso | 34 | 21 | 46 | 1018 | 10 | N 11.1 | |
| Ieri h: 14:15 | Sereno | 35 | 21 | 44 | 1018 | 10 | S/SO 13 | |
| Ieri h: 13:50 | Nuvoloso | 34 | 21 | 46 | 1019 | 10 | S 14.8 | |
| Ieri h: 13:35 | Nuvoloso | 33 | 21 | 49 | 1019 | 10 | N 13 | |
| Ieri h: 13:15 | Poco Nuvoloso | 33 | 21 | 49 | 1019 | 10 | N 11.1 | |
| Ieri h: 12:55 | Poco Nuvoloso | 33 | 21 | 49 | 1019 | 10 | N 11.1 | |
| Ieri h: 12:35 | Poco Nuvoloso | 33 | 21 | 49 | 1019 | 10 | S 16.7 | |



